contact:dominique.lefevre@mio.osupytheas.fr, maurice.libes@osupytheas.fr, didier.mallarino@osupytheas.fr
Project:EMSO http://www.emso-fr.org/EMSO-France
Depth: 2436.0 m
Title:EMSO Ligure Ouest : Data MII capteur CSTAR
DateTime,Latitude,Longitude,Instrument_Serial,Reference_Counts,Signal_Counts,Corrected_Signal_raw_counts,Calculated_Beam_c_inverse_meters,Internal_thermistor_counts
DateTime,Latitude,Longitude,Instrument_Serial,Reference_Counts,Signal_Counts,Corrected_Signal_raw_counts,Calculated_Beam_c_inverse_meters,Internal_thermistor_counts
2023-06-28T00:01:37,42.805,6.029,CST-1368DR,4276,4764,11825,01.112,552
2023-06-28T00:04:38,42.805,6.029,CST-1368DR,4276,4765,11827,01.112,552
2023-06-28T00:07:40,42.805,6.029,CST-1368DR,4276,4764,11826,01.112,552
2023-06-28T00:10:42,42.805,6.029,CST-1368DR,4276,4764,11824,01.113,552
2023-06-28T00:13:43,42.805,6.029,CST-1368DR,4276,4764,11824,01.113,552
2023-06-28T00:16:45,42.805,6.029,CST-1368DR,4276,4764,11825,01.112,552
2023-06-28T00:19:46,42.805,6.029,CST-1368DR,4276,4764,11826,01.112,552
2023-06-28T00:22:48,42.805,6.029,CST-1368DR,4276,4764,11826,01.112,552
2023-06-28T00:25:49,42.805,6.029,CST-1368DR,4276,4763,11824,01.113,552
2023-06-28T00:28:51,42.805,6.029,CST-1368DR,4276,4764,11826,01.112,552
2023-06-28T00:31:53,42.805,6.029,CST-1368DR,4276,4764,11826,01.112,552
2023-06-28T00:34:54,42.805,6.029,CST-1368DR,4276,4764,11826,01.112,552
2023-06-28T00:37:56,42.805,6.029,CST-1368DR,4276,4764,11825,01.112,552
2023-06-28T00:40:57,42.805,6.029,CST-1368DR,4276,4764,11826,01.112,552
2023-06-28T00:43:59,42.805,6.029,CST-1368DR,4276,4764,11825,01.112,552
2023-06-28T00:47:00,42.805,6.029,CST-1368DR,4276,4764,11825,01.112,552
2023-06-28T00:50:02,42.805,6.029,CST-1368DR,4276,4764,11825,01.112,552
2023-06-28T00:53:04,42.805,6.029,CST-1368DR,4276,4764,11825,01.112,552
2023-06-28T00:56:05,42.805,6.029,CST-1368DR,4276,4764,11826,01.112,552
2023-06-28T00:59:07,42.805,6.029,CST-1368DR,4276,4764,11826,01.112,552
2023-06-28T01:02:08,42.805,6.029,CST-1368DR,4276,4764,11825,01.112,552
2023-06-28T01:05:10,42.805,6.029,CST-1368DR,4276,4765,11828,01.111,552
2023-06-28T01:08:11,42.805,6.029,CST-1368DR,4276,4764,11825,01.112,552
2023-06-28T01:11:13,42.805,6.029,CST-1368DR,4276,4764,11826,01.112,552
2023-06-28T01:14:15,42.805,6.029,CST-1368DR,4276,4764,11825,01.112,552
2023-06-28T01:17:16,42.805,6.029,CST-1368DR,4276,4765,11827,01.112,552
2023-06-28T01:20:18,42.805,6.029,CST-1368DR,4276,4765,11827,01.112,552
2023-06-28T01:23:19,42.805,6.029,CST-1368DR,4276,4763,11823,01.113,552
2023-06-28T01:26:21,42.805,6.029,CST-1368DR,4276,4764,11824,01.113,552
2023-06-28T01:29:23,42.805,6.029,CST-1368DR,4276,4763,11824,01.113,552
2023-06-28T01:32:24,42.805,6.029,CST-1368DR,4276,4765,11829,01.111,552
2023-06-28T01:35:26,42.805,6.029,CST-1368DR,4276,4764,11826,01.112,552
2023-06-28T01:38:27,42.805,6.029,CST-1368DR,4276,4763,11824,01.113,552
2023-06-28T01:41:29,42.805,6.029,CST-1368DR,4276,4764,11826,01.112,552
2023-06-28T01:44:30,42.805,6.029,CST-1368DR,4276,4764,11825,01.112,552
2023-06-28T01:47:32,42.805,6.029,CST-1368DR,4276,4764,11824,01.113,552
2023-06-28T01:50:34,42.805,6.029,CST-1368DR,4276,4764,11824,01.113,552
2023-06-28T01:53:35,42.805,6.029,CST-1368DR,4276,4763,11823,01.113,552
2023-06-28T01:56:37,42.805,6.029,CST-1368DR,4276,4765,11827,01.112,552
2023-06-28T01:59:38,42.805,6.029,CST-1368DR,4276,4765,11827,01.112,552
2023-06-28T02:02:40,42.805,6.029,CST-1368DR,4276,4764,11826,01.112,552
2023-06-28T02:05:41,42.805,6.029,CST-1368DR,4276,4764,11824,01.113,552
2023-06-28T02:08:43,42.805,6.029,CST-1368DR,4276,4764,11826,01.112,552
2023-06-28T02:11:45,42.805,6.029,CST-1368DR,4276,4762,11820,01.114,552
2023-06-28T02:14:46,42.805,6.029,CST-1368DR,4276,4764,11826,01.112,552
2023-06-28T02:17:48,42.805,6.029,CST-1368DR,4276,4763,11824,01.113,552
2023-06-28T02:20:49,42.805,6.029,CST-1368DR,4276,4764,11826,01.112,552
2023-06-28T02:23:51,42.805,6.029,CST-1368DR,4276,4765,11827,01.112,552
2023-06-28T02:26:53,42.805,6.029,CST-1368DR,4276,4764,11824,01.113,552
2023-06-28T02:29:54,42.805,6.029,CST-1368DR,4276,4764,11824,01.113,552
2023-06-28T02:32:56,42.805,6.029,CST-1368DR,4276,4763,11824,01.113,552
2023-06-28T02:35:57,42.805,6.029,CST-1368DR,4276,4763,11823,01.113,553
2023-06-28T02:38:59,42.805,6.029,CST-1368DR,4276,4764,11824,01.113,552
2023-06-28T02:42:00,42.805,6.029,CST-1368DR,4276,4764,11824,01.113,552
2023-06-28T02:45:02,42.805,6.029,CST-1368DR,4276,4764,11826,01.112,552
2023-06-28T02:48:04,42.805,6.029,CST-1368DR,4276,4764,11826,01.112,552
2023-06-28T02:51:05,42.805,6.029,CST-1368DR,4276,4764,11826,01.112,552
2023-06-28T02:54:07,42.805,6.029,CST-1368DR,4276,4764,11826,01.112,552
2023-06-28T02:57:08,42.805,6.029,CST-1368DR,4276,4764,11825,01.112,552
2023-06-28T03:00:10,42.805,6.029,CST-1368DR,4276,4764,11826,01.112,552
2023-06-28T03:03:11,42.805,6.029,CST-1368DR,4276,4764,11826,01.112,552
2023-06-28T03:06:13,42.805,6.029,CST-1368DR,4276,4763,11824,01.113,552
2023-06-28T03:09:15,42.805,6.029,CST-1368DR,4276,4763,11824,01.113,552
2023-06-28T03:12:16,42.805,6.029,CST-1368DR,4276,4764,11826,01.112,552
2023-06-28T03:15:18,42.805,6.029,CST-1368DR,4276,4764,11826,01.112,552
2023-06-28T03:18:19,42.805,6.029,CST-1368DR,4276,4763,11823,01.113,552
2023-06-28T03:21:21,42.805,6.029,CST-1368DR,4276,4764,11825,01.112,552
2023-06-28T03:24:23,42.805,6.029,CST-1368DR,4276,4763,11824,01.113,552
2023-06-28T03:27:24,42.805,6.029,CST-1368DR,4276,4764,11826,01.112,552
2023-06-28T03:30:26,42.805,6.029,CST-1368DR,4276,4763,11823,01.113,552
2023-06-28T03:33:27,42.805,6.029,CST-1368DR,4275,4764,11827,01.112,552
2023-06-28T03:36:29,42.805,6.029,CST-1368DR,4276,4763,11823,01.113,552
2023-06-28T03:39:30,42.805,6.029,CST-1368DR,4276,4763,11824,01.113,552
2023-06-28T03:42:32,42.805,6.029,CST-1368DR,4276,4764,11826,01.112,552
2023-06-28T03:45:34,42.805,6.029,CST-1368DR,4276,4764,11824,01.113,552
2023-06-28T03:48:35,42.805,6.029,CST-1368DR,4276,4764,11825,01.112,552
2023-06-28T03:51:37,42.805,6.029,CST-1368DR,4276,4765,11828,01.111,552
2023-06-28T03:54:38,42.805,6.029,CST-1368DR,4276,4764,11826,01.112,552
2023-06-28T03:57:40,42.805,6.029,CST-1368DR,4276,4764,11826,01.112,552
2023-06-28T04:00:41,42.805,6.029,CST-1368DR,4276,4763,11823,01.113,552
2023-06-28T04:03:43,42.805,6.029,CST-1368DR,4276,4764,11825,01.112,552
2023-06-28T04:06:45,42.805,6.029,CST-1368DR,4276,4764,11826,01.112,552
2023-06-28T04:09:46,42.805,6.029,CST-1368DR,4276,4763,11824,01.113,552
2023-06-28T04:12:48,42.805,6.029,CST-1368DR,4276,4763,11822,01.113,552
2023-06-28T04:15:49,42.805,6.029,CST-1368DR,4276,4764,11825,01.112,552
2023-06-28T04:18:51,42.805,6.029,CST-1368DR,4276,4765,11828,01.111,552
2023-06-28T04:21:52,42.805,6.029,CST-1368DR,4276,4763,11823,01.113,552
2023-06-28T04:24:54,42.805,6.029,CST-1368DR,4276,4763,11823,01.113,552
2023-06-28T04:27:56,42.805,6.029,CST-1368DR,4276,4763,11823,01.113,552
2023-06-28T04:30:59,42.805,6.029,CST-1368DR,4276,4764,11824,01.113,552
2023-06-28T04:34:01,42.805,6.029,CST-1368DR,4276,4764,11825,01.112,552
2023-06-28T04:37:02,42.805,6.029,CST-1368DR,4276,4763,11822,01.113,552
2023-06-28T04:40:04,42.805,6.029,CST-1368DR,4276,4763,11822,01.113,552
2023-06-28T04:43:06,42.805,6.029,CST-1368DR,4276,4763,11823,01.113,552
2023-06-28T04:46:07,42.805,6.029,CST-1368DR,4276,4764,11825,01.112,552
2023-06-28T04:49:09,42.805,6.029,CST-1368DR,4276,4763,11822,01.113,552
2023-06-28T04:52:10,42.805,6.029,CST-1368DR,4276,4763,11823,01.113,552
2023-06-28T04:55:12,42.805,6.029,CST-1368DR,4276,4764,11824,01.113,552
2023-06-28T04:58:14,42.805,6.029,CST-1368DR,4276,4764,11826,01.112,552
2023-06-28T05:01:15,42.805,6.029,CST-1368DR,4276,4764,11824,01.113,552
2023-06-28T05:04:17,42.805,6.029,CST-1368DR,4276,4763,11822,01.113,552
2023-06-28T05:07:18,42.805,6.029,CST-1368DR,4276,4763,11824,01.113,552
2023-06-28T05:10:20,42.805,6.029,CST-1368DR,4275,4764,11828,01.111,552
2023-06-28T05:13:21,42.805,6.029,CST-1368DR,4276,4763,11823,01.113,552
2023-06-28T05:16:23,42.805,6.029,CST-1368DR,4276,4763,11824,01.113,552
2023-06-28T05:19:25,42.805,6.029,CST-1368DR,4276,4764,11824,01.113,552
2023-06-28T05:22:26,42.805,6.029,CST-1368DR,4275,4763,11826,01.112,552
2023-06-28T05:25:28,42.805,6.029,CST-1368DR,4276,4764,11825,01.112,552
2023-06-28T05:28:29,42.805,6.029,CST-1368DR,4276,4762,11821,01.114,552
2023-06-28T05:31:31,42.805,6.029,CST-1368DR,4276,4763,11824,01.113,552
2023-06-28T05:34:32,42.805,6.029,CST-1368DR,4276,4764,11824,01.113,552
2023-06-28T05:37:34,42.805,6.029,CST-1368DR,4276,4762,11820,01.114,552
2023-06-28T05:40:36,42.805,6.029,CST-1368DR,4275,4763,11826,01.112,552
2023-06-28T05:43:37,42.805,6.029,CST-1368DR,4275,4763,11826,01.112,552
2023-06-28T05:46:39,42.805,6.029,CST-1368DR,4276,4764,11825,01.112,552
2023-06-28T05:49:40,42.805,6.029,CST-1368DR,4276,4764,11825,01.112,552
2023-06-28T05:52:42,42.805,6.029,CST-1368DR,4276,4764,11825,01.112,552
2023-06-28T05:55:44,42.805,6.029,CST-1368DR,4276,4764,11826,01.112,552
2023-06-28T05:58:45,42.805,6.029,CST-1368DR,4275,4763,11826,01.112,552
2023-06-28T06:01:47,42.805,6.029,CST-1368DR,4275,4764,11829,01.111,552
2023-06-28T06:04:48,42.805,6.029,CST-1368DR,4276,4765,11827,01.112,552
2023-06-28T06:07:50,42.805,6.029,CST-1368DR,4275,4763,11826,01.112,552
2023-06-28T06:10:51,42.805,6.029,CST-1368DR,4275,4764,11828,01.111,552
2023-06-28T06:13:53,42.805,6.029,CST-1368DR,4275,4764,11828,01.111,552
2023-06-28T06:16:55,42.805,6.029,CST-1368DR,4275,4765,11831,01.110,552
2023-06-28T06:19:56,42.805,6.029,CST-1368DR,4275,4764,11829,01.111,552
2023-06-28T06:22:58,42.805,6.029,CST-1368DR,4275,4764,11829,01.111,552
2023-06-28T06:25:59,42.805,6.029,CST-1368DR,4275,4766,11832,01.110,552
2023-06-28T06:29:01,42.805,6.029,CST-1368DR,4275,4764,11828,01.111,552
2023-06-28T06:32:02,42.805,6.029,CST-1368DR,4275,4762,11823,01.113,552
2023-06-28T06:35:04,42.805,6.029,CST-1368DR,4275,4765,11831,01.110,552
2023-06-28T06:38:06,42.805,6.029,CST-1368DR,4275,4765,11830,01.111,552
2023-06-28T06:41:07,42.805,6.029,CST-1368DR,4275,4764,11829,01.111,552
2023-06-28T06:44:09,42.805,6.029,CST-1368DR,4275,4765,11830,01.111,552
2023-06-28T06:47:10,42.805,6.029,CST-1368DR,4275,4764,11827,01.112,552
2023-06-28T06:50:12,42.805,6.029,CST-1368DR,4275,4764,11828,01.111,552
2023-06-28T06:53:14,42.805,6.029,CST-1368DR,4275,4764,11829,01.111,552
2023-06-28T06:56:15,42.805,6.029,CST-1368DR,4275,4765,11831,01.110,552
2023-06-28T06:59:17,42.805,6.029,CST-1368DR,4275,4765,11830,01.111,552
2023-06-28T07:02:18,42.805,6.029,CST-1368DR,4275,4764,11828,01.111,552
2023-06-28T07:05:20,42.805,6.029,CST-1368DR,4275,4764,11828,01.111,552
2023-06-28T07:08:21,42.805,6.029,CST-1368DR,4276,4764,11826,01.112,552
2023-06-28T07:11:23,42.805,6.029,CST-1368DR,4275,4765,11831,01.110,552
2023-06-28T07:14:25,42.805,6.029,CST-1368DR,4275,4763,11826,01.112,552
2023-06-28T07:17:26,42.805,6.029,CST-1368DR,4275,4764,11829,01.111,552
2023-06-28T07:20:28,42.805,6.029,CST-1368DR,4275,4765,11830,01.111,552
2023-06-28T07:23:29,42.805,6.029,CST-1368DR,4275,4765,11831,01.110,552
2023-06-28T07:26:31,42.805,6.029,CST-1368DR,4275,4765,11831,01.110,552
2023-06-28T07:29:33,42.805,6.029,CST-1368DR,4275,4764,11828,01.111,552
2023-06-28T07:32:34,42.805,6.029,CST-1368DR,4275,4765,11831,01.110,552
2023-06-28T07:35:36,42.805,6.029,CST-1368DR,4275,4765,11831,01.110,552
2023-06-28T07:38:37,42.805,6.029,CST-1368DR,4275,4765,11831,01.110,552
2023-06-28T07:41:39,42.805,6.029,CST-1368DR,4275,4764,11829,01.111,552
2023-06-28T07:44:40,42.805,6.029,CST-1368DR,4275,4764,11828,01.111,552
2023-06-28T07:47:42,42.805,6.029,CST-1368DR,4275,4765,11830,01.111,552
2023-06-28T07:50:44,42.805,6.029,CST-1368DR,4275,4764,11828,01.111,552
2023-06-28T07:53:45,42.805,6.029,CST-1368DR,4275,4765,11831,01.110,552
2023-06-28T07:56:47,42.805,6.029,CST-1368DR,4275,4764,11827,01.112,552
2023-06-28T07:59:48,42.805,6.029,CST-1368DR,4275,4764,11827,01.112,552
2023-06-28T08:02:50,42.805,6.029,CST-1368DR,4275,4764,11829,01.111,552
2023-06-28T08:05:51,42.805,6.029,CST-1368DR,4275,4764,11827,01.112,552
2023-06-28T08:08:53,42.805,6.029,CST-1368DR,4275,4764,11827,01.112,552
2023-06-28T08:11:55,42.805,6.029,CST-1368DR,4275,4764,11828,01.111,552
2023-06-28T08:14:56,42.805,6.029,CST-1368DR,4275,4764,11828,01.111,552
2023-06-28T08:17:58,42.805,6.029,CST-1368DR,4275,4764,11828,01.111,552
2023-06-28T08:20:59,42.805,6.029,CST-1368DR,4275,4764,11828,01.111,552
2023-06-28T08:24:01,42.805,6.029,CST-1368DR,4275,4764,11828,01.111,552
2023-06-28T08:27:03,42.805,6.029,CST-1368DR,4275,4765,11830,01.111,552
2023-06-28T08:30:08,42.805,6.029,CST-1368DR,4275,4764,11828,01.111,552
2023-06-28T08:33:06,42.805,6.029,CST-1368DR,4275,4765,11830,01.111,552
2023-06-28T08:36:08,42.805,6.029,CST-1368DR,4275,4764,11828,01.111,552
2023-06-28T08:39:09,42.805,6.029,CST-1368DR,4275,4764,11828,01.111,552
2023-06-28T08:42:11,42.805,6.029,CST-1368DR,4275,4764,11829,01.111,552
2023-06-28T08:45:12,42.805,6.029,CST-1368DR,4275,4764,11828,01.111,552
2023-06-28T08:48:14,42.805,6.029,CST-1368DR,4275,4764,11827,01.112,552
2023-06-28T08:51:15,42.805,6.029,CST-1368DR,4275,4765,11830,01.111,552
2023-06-28T08:54:17,42.805,6.029,CST-1368DR,4275,4764,11828,01.111,552
2023-06-28T08:57:19,42.805,6.029,CST-1368DR,4275,4764,11828,01.111,552
2023-06-28T09:00:20,42.805,6.029,CST-1368DR,4275,4764,11828,01.111,552
2023-06-28T09:03:22,42.805,6.029,CST-1368DR,4275,4765,11830,01.111,552
2023-06-28T09:06:23,42.805,6.029,CST-1368DR,4275,4765,11831,01.110,552
2023-06-28T09:09:25,42.805,6.029,CST-1368DR,4275,4764,11829,01.111,552
2023-06-28T09:12:27,42.805,6.029,CST-1368DR,4275,4764,11827,01.112,552
2023-06-28T09:15:28,42.805,6.029,CST-1368DR,4275,4764,11828,01.111,552
2023-06-28T09:18:30,42.805,6.029,CST-1368DR,4275,4764,11829,01.111,552
2023-06-28T09:21:31,42.805,6.029,CST-1368DR,4275,4764,11828,01.111,552
2023-06-28T09:24:33,42.805,6.029,CST-1368DR,4275,4763,11826,01.112,552
2023-06-28T09:27:34,42.805,6.029,CST-1368DR,4275,4764,11829,01.111,552
2023-06-28T09:30:36,42.805,6.029,CST-1368DR,4275,4765,11831,01.110,552
2023-06-28T09:33:38,42.805,6.029,CST-1368DR,4275,4765,11831,01.110,552
2023-06-28T09:36:39,42.805,6.029,CST-1368DR,4275,4764,11828,01.111,552
2023-06-28T09:39:41,42.805,6.029,CST-1368DR,4275,4764,11827,01.112,552
2023-06-28T09:42:42,42.805,6.029,CST-1368DR,4275,4765,11830,01.111,552
2023-06-28T09:45:44,42.805,6.029,CST-1368DR,4275,4765,11831,01.110,552
2023-06-28T09:48:45,42.805,6.029,CST-1368DR,4275,4763,11825,01.112,552
2023-06-28T09:51:47,42.805,6.029,CST-1368DR,4275,4763,11826,01.112,552
2023-06-28T09:54:49,42.805,6.029,CST-1368DR,4275,4764,11828,01.111,552
2023-06-28T09:57:50,42.805,6.029,CST-1368DR,4275,4764,11828,01.111,552
2023-06-28T10:00:52,42.805,6.029,CST-1368DR,4275,4763,11826,01.112,552
2023-06-28T10:03:53,42.805,6.029,CST-1368DR,4275,4764,11829,01.111,552
2023-06-28T10:06:55,42.805,6.029,CST-1368DR,4275,4766,11833,01.110,552
2023-06-28T10:09:57,42.805,6.029,CST-1368DR,4275,4766,11832,01.110,552
2023-06-28T10:12:58,42.805,6.029,CST-1368DR,4275,4764,11828,01.111,552
2023-06-28T10:16:00,42.805,6.029,CST-1368DR,4275,4764,11827,01.112,552
2023-06-28T10:19:01,42.805,6.029,CST-1368DR,4275,4766,11832,01.110,552
2023-06-28T10:22:03,42.805,6.029,CST-1368DR,4275,4765,11831,01.110,552
2023-06-28T10:25:04,42.805,6.029,CST-1368DR,4275,4765,11831,01.110,552
2023-06-28T10:28:06,42.805,6.029,CST-1368DR,4275,4766,11833,01.110,552
2023-06-28T10:31:09,42.805,6.029,CST-1368DR,4275,4764,11829,01.111,552
2023-06-28T10:34:10,42.805,6.029,CST-1368DR,4275,4765,11830,01.111,552
2023-06-28T10:37:12,42.805,6.029,CST-1368DR,4275,4765,11830,01.111,552
2023-06-28T10:40:13,42.805,6.029,CST-1368DR,4275,4765,11831,01.110,552
2023-06-28T10:43:15,42.805,6.029,CST-1368DR,4275,4765,11830,01.111,552
2023-06-28T10:46:17,42.805,6.029,CST-1368DR,4275,4765,11830,01.111,552
2023-06-28T10:49:18,42.805,6.029,CST-1368DR,4275,4764,11829,01.111,552
2023-06-28T10:52:20,42.805,6.029,CST-1368DR,4275,4764,11829,01.111,552
2023-06-28T10:55:21,42.805,6.029,CST-1368DR,4275,4765,11831,01.110,552
2023-06-28T10:58:23,42.805,6.029,CST-1368DR,4275,4765,11831,01.110,552
2023-06-28T11:01:24,42.805,6.029,CST-1368DR,4275,4765,11830,01.111,552
2023-06-28T11:04:26,42.805,6.029,CST-1368DR,4275,4764,11828,01.111,552
2023-06-28T11:07:28,42.805,6.029,CST-1368DR,4275,4764,11828,01.111,552
2023-06-28T11:10:29,42.805,6.029,CST-1368DR,4275,4765,11830,01.111,552
2023-06-28T11:13:31,42.805,6.029,CST-1368DR,4275,4765,11830,01.111,552
2023-06-28T11:16:32,42.805,6.029,CST-1368DR,4275,4765,11830,01.111,552
2023-06-28T11:19:34,42.805,6.029,CST-1368DR,4275,4765,11830,01.111,552
2023-06-28T11:22:35,42.805,6.029,CST-1368DR,4275,4764,11829,01.111,552
2023-06-28T11:25:37,42.805,6.029,CST-1368DR,4275,4766,11832,01.110,552
2023-06-28T11:28:39,42.805,6.029,CST-1368DR,4275,4765,11831,01.110,552
2023-06-28T11:31:40,42.805,6.029,CST-1368DR,4275,4765,11831,01.110,552
2023-06-28T11:34:42,42.805,6.029,CST-1368DR,4275,4764,11828,01.111,552
2023-06-28T11:37:43,42.805,6.029,CST-1368DR,4275,4765,11831,01.110,552
2023-06-28T11:40:45,42.805,6.029,CST-1368DR,4275,4765,11831,01.110,552
2023-06-28T11:43:47,42.805,6.029,CST-1368DR,4275,4765,11831,01.110,552
2023-06-28T11:46:48,42.805,6.029,CST-1368DR,4275,4764,11829,01.111,552
2023-06-28T11:49:50,42.805,6.029,CST-1368DR,4275,4765,11830,01.111,552
2023-06-28T11:52:51,42.805,6.029,CST-1368DR,4275,4764,11829,01.111,552
2023-06-28T11:55:53,42.805,6.029,CST-1368DR,4275,4764,11829,01.111,552
2023-06-28T11:58:54,42.805,6.029,CST-1368DR,4275,4764,11828,01.111,552
2023-06-28T12:01:56,42.805,6.029,CST-1368DR,4275,4764,11828,01.111,552
2023-06-28T12:04:58,42.805,6.029,CST-1368DR,4275,4766,11833,01.110,552
2023-06-28T12:07:59,42.805,6.029,CST-1368DR,4275,4766,11832,01.110,552
2023-06-28T12:11:01,42.805,6.029,CST-1368DR,4275,4765,11830,01.111,552
2023-06-28T12:14:02,42.805,6.029,CST-1368DR,4275,4764,11828,01.111,552
2023-06-28T12:17:04,42.805,6.029,CST-1368DR,4275,4765,11831,01.110,552
2023-06-28T12:20:05,42.805,6.029,CST-1368DR,4275,4765,11831,01.110,552
2023-06-28T12:23:07,42.805,6.029,CST-1368DR,4275,4765,11831,01.110,552
2023-06-28T12:26:09,42.805,6.029,CST-1368DR,4275,4764,11829,01.111,552
2023-06-28T12:29:10,42.805,6.029,CST-1368DR,4275,4765,11830,01.111,552
2023-06-28T12:32:12,42.805,6.029,CST-1368DR,4275,4764,11828,01.111,552
2023-06-28T12:35:13,42.805,6.029,CST-1368DR,4275,4765,11831,01.110,552
2023-06-28T12:38:15,42.805,6.029,CST-1368DR,4275,4764,11827,01.112,552
2023-06-28T12:41:17,42.805,6.029,CST-1368DR,4275,4764,11829,01.111,552
2023-06-28T12:44:18,42.805,6.029,CST-1368DR,4275,4765,11830,01.111,552
2023-06-28T12:47:20,42.805,6.029,CST-1368DR,4275,4765,11830,01.111,552
2023-06-28T12:50:21,42.805,6.029,CST-1368DR,4275,4765,11831,01.110,552
2023-06-28T12:53:23,42.805,6.029,CST-1368DR,4275,4765,11831,01.110,552
2023-06-28T12:56:24,42.805,6.029,CST-1368DR,4275,4765,11831,01.110,552
2023-06-28T12:59:26,42.805,6.029,CST-1368DR,4275,4764,11829,01.111,552
2023-06-28T13:02:28,42.805,6.029,CST-1368DR,4275,4764,11828,01.111,552
2023-06-28T13:05:29,42.805,6.029,CST-1368DR,4275,4765,11831,01.110,552
2023-06-28T13:08:31,42.805,6.029,CST-1368DR,4275,4766,11832,01.110,552
2023-06-28T13:11:32,42.805,6.029,CST-1368DR,4275,4765,11831,01.110,552
2023-06-28T13:14:34,42.805,6.029,CST-1368DR,4275,4765,11830,01.111,552
2023-06-28T13:17:35,42.805,6.029,CST-1368DR,4275,4764,11828,01.111,552
2023-06-28T13:20:37,42.805,6.029,CST-1368DR,4275,4764,11829,01.111,552
2023-06-28T13:23:39,42.805,6.029,CST-1368DR,4275,4765,11830,01.111,552
2023-06-28T13:26:40,42.805,6.029,CST-1368DR,4275,4764,11827,01.112,552
2023-06-28T13:29:42,42.805,6.029,CST-1368DR,4275,4764,11827,01.112,552
2023-06-28T13:32:43,42.805,6.029,CST-1368DR,4275,4764,11829,01.111,552
2023-06-28T13:35:45,42.805,6.029,CST-1368DR,4275,4765,11830,01.111,552
2023-06-28T13:38:47,42.805,6.029,CST-1368DR,4275,4764,11828,01.111,552
2023-06-28T13:41:48,42.805,6.029,CST-1368DR,4275,4764,11828,01.111,552
2023-06-28T13:44:50,42.805,6.029,CST-1368DR,4275,4764,11828,01.111,552
2023-06-28T13:47:51,42.805,6.029,CST-1368DR,4275,4763,11826,01.112,552
2023-06-28T13:50:53,42.805,6.029,CST-1368DR,4275,4764,11829,01.111,552
2023-06-28T13:53:54,42.805,6.029,CST-1368DR,4275,4764,11828,01.111,552
2023-06-28T13:56:56,42.805,6.029,CST-1368DR,4275,4764,11829,01.111,552
2023-06-28T13:59:58,42.805,6.029,CST-1368DR,4275,4764,11828,01.111,552
2023-06-28T14:02:59,42.805,6.029,CST-1368DR,4275,4765,11830,01.111,552
2023-06-28T14:06:01,42.805,6.029,CST-1368DR,4275,4765,11830,01.111,552
2023-06-28T14:09:02,42.805,6.029,CST-1368DR,4275,4763,11826,01.112,552
2023-06-28T14:12:04,42.805,6.029,CST-1368DR,4275,4764,11828,01.111,552
2023-06-28T14:15:05,42.805,6.029,CST-1368DR,4275,4764,11828,01.111,552
2023-06-28T14:18:07,42.805,6.029,CST-1368DR,4275,4764,11828,01.111,552
2023-06-28T14:21:09,42.805,6.029,CST-1368DR,4275,4764,11828,01.111,552
2023-06-28T14:24:10,42.805,6.029,CST-1368DR,4275,4764,11827,01.112,552
2023-06-28T14:27:12,42.805,6.029,CST-1368DR,4275,4763,11825,01.112,552
2023-06-28T14:30:14,42.805,6.029,CST-1368DR,4275,4764,11827,01.112,552
2023-06-28T14:33:16,42.805,6.029,CST-1368DR,4275,4764,11828,01.111,552
2023-06-28T14:36:17,42.805,6.029,CST-1368DR,4275,4763,11826,01.112,552
2023-06-28T14:39:19,42.805,6.029,CST-1368DR,4275,4764,11827,01.112,552
2023-06-28T14:42:20,42.805,6.029,CST-1368DR,4275,4763,11826,01.112,552
2023-06-28T14:45:22,42.805,6.029,CST-1368DR,4275,4764,11828,01.111,552
2023-06-28T14:48:23,42.805,6.029,CST-1368DR,4275,4764,11827,01.112,552
2023-06-28T14:51:25,42.805,6.029,CST-1368DR,4275,4764,11828,01.111,552
2023-06-28T14:54:27,42.805,6.029,CST-1368DR,4275,4764,11828,01.111,552
2023-06-28T14:57:28,42.805,6.029,CST-1368DR,4275,4764,11828,01.111,552
2023-06-28T15:00:30,42.805,6.029,CST-1368DR,4275,4764,11827,01.112,552
2023-06-28T15:03:31,42.805,6.029,CST-1368DR,4275,4764,11827,01.112,552
2023-06-28T15:06:33,42.805,6.029,CST-1368DR,4275,4764,11829,01.111,552
2023-06-28T15:09:35,42.805,6.029,CST-1368DR,4275,4764,11828,01.111,552
2023-06-28T15:12:36,42.805,6.029,CST-1368DR,4275,4764,11828,01.111,552
2023-06-28T15:15:38,42.805,6.029,CST-1368DR,4275,4764,11827,01.112,552
2023-06-28T15:18:39,42.805,6.029,CST-1368DR,4275,4764,11828,01.111,552
2023-06-28T15:21:41,42.805,6.029,CST-1368DR,4275,4764,11828,01.111,552
2023-06-28T15:24:42,42.805,6.029,CST-1368DR,4275,4764,11828,01.111,552
2023-06-28T15:27:44,42.805,6.029,CST-1368DR,4275,4764,11828,01.111,552
2023-06-28T15:30:46,42.805,6.029,CST-1368DR,4275,4764,11827,01.112,552
2023-06-28T15:33:47,42.805,6.029,CST-1368DR,4275,4765,11830,01.111,552
2023-06-28T15:36:49,42.805,6.029,CST-1368DR,4275,4764,11827,01.112,552
2023-06-28T15:39:50,42.805,6.029,CST-1368DR,4275,4763,11826,01.112,552
2023-06-28T15:42:52,42.805,6.029,CST-1368DR,4275,4764,11828,01.111,552
2023-06-28T15:45:53,42.805,6.029,CST-1368DR,4275,4764,11828,01.111,552
2023-06-28T15:48:55,42.805,6.029,CST-1368DR,4275,4764,11829,01.111,552
2023-06-28T15:51:57,42.805,6.029,CST-1368DR,4275,4764,11828,01.111,552
2023-06-28T15:54:58,42.805,6.029,CST-1368DR,4275,4763,11826,01.112,552
2023-06-28T15:58:00,42.805,6.029,CST-1368DR,4275,4764,11827,01.112,552
2023-06-28T16:01:01,42.805,6.029,CST-1368DR,4275,4765,11830,01.111,552
2023-06-28T16:04:03,42.805,6.029,CST-1368DR,4275,4764,11829,01.111,552
2023-06-28T16:07:05,42.805,6.029,CST-1368DR,4275,4764,11828,01.111,552
2023-06-28T16:10:06,42.805,6.029,CST-1368DR,4275,4764,11828,01.111,552
2023-06-28T16:13:08,42.805,6.029,CST-1368DR,4275,4764,11828,01.111,552
2023-06-28T16:16:09,42.805,6.029,CST-1368DR,4275,4764,11828,01.111,552
2023-06-28T16:19:11,42.805,6.029,CST-1368DR,4275,4764,11828,01.111,552
2023-06-28T16:22:12,42.805,6.029,CST-1368DR,4275,4764,11829,01.111,552
2023-06-28T16:25:14,42.805,6.029,CST-1368DR,4275,4764,11827,01.112,552
2023-06-28T16:28:16,42.805,6.029,CST-1368DR,4275,4764,11828,01.111,552
2023-06-28T16:31:18,42.805,6.029,CST-1368DR,4275,4765,11831,01.110,552
2023-06-28T16:34:19,42.805,6.029,CST-1368DR,4275,4764,11827,01.112,552
2023-06-28T16:37:21,42.805,6.029,CST-1368DR,4275,4764,11828,01.111,552